CW4114 Weather Reports


Display with metric or nautical units.
time (UTC)temp
F
wind
direction
speed
MPH
gust
MPH
rain 1hr
in
rain 24hr
in
rain mn
in
humidity
%
barometer
mb
20260506124143 40 286 5.0 9.0 0.00 0.00 0.00 67 1010.0
20260506123414 39 247 6.0 11.0 0.00 0.00 0.00 69 1010.0
20260506122915 39 299 4.0 11.0 0.00 0.00 0.00 69 1010.0
20260506122638 39 259 3.0 10.0 0.00 0.00 0.00 70 1010.1
20260506121912 38 262 7.0 10.0 0.00 0.00 0.00 71 1010.0
20260506121412 38 257 6.0 10.0 0.00 0.00 0.00 74 1010.0
20260506121139 37 278 3.0 7.0 0.00 0.00 0.00 76 1009.9
20260506120412 37 274 5.0 7.0 0.00 0.00 0.00 77 1010.0
20260506115912 36 295 4.0 7.0 0.00 0.00 0.00 78 1009.9
20260506115415 36 258 6.0 7.0 0.00 0.00 0.00 79 1009.8
20260506115139 36 258 3.0 6.0 0.00 0.00 0.00 80 1009.8
20260506114411 35 262 4.0 6.0 0.00 0.00 0.00 81 1009.7
20260506114136 35 268 3.0 5.0 0.00 0.00 0.00 83 1009.7
20260506113655 34 254 3.0 6.0 0.00 0.00 0.00 83 1009.6
20260506112909 34 274 3.0 6.0 0.00 0.00 0.00 84 1009.6
20260506112411 33 278 3.0 5.0 0.00 0.00 0.00 85 1009.6
20260506111906 33 282 2.0 5.0 0.00 0.00 0.00 86 1009.4
20260506111405 32 278 3.0 5.0 0.00 0.00 0.00 87 1009.2
20260506110908 32 264 2.0 4.0 0.00 0.00 0.00 87 1009.0
20260506110404 31 268 2.0 4.0 0.00 0.00 0.00 88 1009.1
20260506110127 31 269 2.0 4.0 0.00 0.00 0.00 88 1009.0
20260506105403 31 288 2.0 4.0 0.00 0.00 0.00 88 1009.0
20260506104903 30 274 3.0 4.0 0.00 0.00 0.00 89 1009.0
20260506104404 30 271 2.0 4.0 0.00 0.00 0.00 89 1009.0
20260506103903 30 258 2.0 4.0 0.00 0.00 0.00 88 1008.9
20260506103402 29 261 2.0 4.0 0.00 0.00 0.00 88 1008.9
20260506102903 30 258 2.0 4.0 0.00 0.00 0.00 88 1009.0
20260506102405 30 251 2.0 3.0 0.00 0.00 0.00 88 1008.9
20260506101903 30 264 2.0 3.0 0.00 0.00 0.00 88 1008.8
20260506101401 30 265 2.0 4.0 0.00 0.00 0.00 88 1008.8
20260506100902 30 267 2.0 4.0 0.00 0.00 0.00 88 1008.9
20260506100400 30 272 2.0 3.0 0.00 0.00 0.00 87 1008.9
20260506095900 30 269 2.0 3.0 0.00 0.00 0.00 87 1008.9
20260506095626 30 268 2.0 3.0 0.00 0.00 0.00 87 1009.0
20260506094858 30 267 2.0 2.0 0.00 0.00 0.00 87 1009.0
20260506094357 30 272 1.0 3.0 0.00 0.00 0.00 87 1008.9
20260506093853 30 265 1.0 3.0 0.00 0.00 0.00 86 1008.9
20260506093354 31 265 1.0 3.0 0.00 0.00 0.00 86 1008.9
20260506092854 31 267 1.0 2.0 0.00 0.00 0.00 86 1008.9
20260506092616 31 264 1.0 3.0 0.00 0.00 0.00 86 1009.0
20260506091853 31 268 2.0 3.0 0.00 0.00 0.00 86 1008.9
20260506091352 31 272 1.0 3.0 0.00 0.00 0.00 86 1008.9
20260506090853 31 272 2.0 3.0 0.00 0.00 0.00 85 1008.8
20260506090352 31 271 1.0 2.0 0.00 0.00 0.00 85 1008.9
20260506090115 31 278 1.0 3.0 0.00 0.00 0.00 84 1008.8
20260506085620 31 261 1.0 3.0 0.00 0.00 0.00 84 1008.7
20260506084851 31 259 1.0 2.0 0.00 0.00 0.00 83 1008.7
20260506084352 31 248 0.0 2.0 0.00 0.00 0.00 83 1008.7
20260506083351 32 244 1.0 2.0 0.00 0.00 0.00 82 1008.7
20260506082849 32 243 0.0 2.0 0.00 0.00 0.00 81 1008.7
20260506082349 32 243 1.0 2.0 0.00 0.00 0.00 80 1008.7
20260506081849 33 244 1.0 2.0 0.00 0.00 0.00 80 1008.7
20260506081349 33 243 1.0 2.0 0.00 0.00 0.00 79 1008.7
20260506080849 33 243 1.0 3.0 0.00 0.00 0.00 78 1008.8
20260506080618 33 243 2.0 3.0 0.00 0.00 0.00 77 1008.8
20260506080110 34 241 2.0 3.0 0.00 0.00 0.00 76 1008.8
20260506072835 35 276 1.0 4.0 0.00 0.00 0.00 72 1008.8
20260506072333 36 300 1.0 4.0 0.00 0.00 0.00 72 1008.8
20260506071834 36 314 2.0 5.0 0.00 0.00 0.00 72 1008.8
20260506071334 36 320 2.0 5.0 0.00 0.00 0.00 73 1008.8
20260506070833 36 305 1.0 5.0 0.00 0.00 0.00 74 1008.9
20260506070333 37 286 1.0 6.0 0.00 0.00 0.00 75 1008.9
20260506062333 37 355 5.0 7.0 0.00 0.00 0.00 76 1008.6
20260506061833 37 337 3.0 7.0 0.00 0.00 0.00 76 1008.7
20260506061556 37 340 2.0 6.0 0.00 0.00 0.00 76 1008.8
20260506060833 37 305 3.0 6.0 0.00 0.00 0.00 77 1008.8
20260506060332 37 353 2.0 5.0 0.00 0.00 0.00 78 1008.8
20260506050833 37 314 0.0 4.0 0.00 0.00 0.00 78 1009.1
20260506050332 37 357 1.0 4.0 0.00 0.00 0.00 78 1009.1
20260506044834 37 310 1.0 3.0 0.00 0.00 0.00 79 1009.2
20260506044333 37 358 2.0 4.0 0.00 0.00 0.00 79 1009.1
20260506044101 37 353 1.0 4.0 0.00 0.00 0.00 79 1009.1
20260506043334 37 355 2.0 3.0 0.00 0.00 0.00 79 1009.1
20260506042835 37 348 2.0 5.0 0.00 0.00 0.00 79 1009.1
20260506042334 38 1 3.0 5.0 0.00 0.00 0.00 79 1009.1
20260506041849 38 24 2.0 6.0 0.00 0.00 0.00 79 1009.0
20260506041559 38 333 1.0 6.0 0.00 0.00 0.00 79 1008.9
20260506040832 38 32 2.0 5.0 0.00 0.00 0.00 79 1008.7
20260506040329 38 8 1.0 5.0 0.00 0.00 0.00 78 1008.7
20260506040105 38 54 2.0 6.0 0.00 0.00 0.00 78 1008.7
20260506035329 38 358 2.0 6.0 0.00 0.00 0.00 78 1008.8
20260506034829 38 351 3.0 6.0 0.00 0.00 0.00 79 1008.8
20260506034328 38 12 3.0 6.0 0.00 0.00 0.00 79 1008.7
20260506033825 38 322 2.0 7.0 0.00 0.00 0.00 80 1008.8
20260506033551 38 323 2.0 7.0 0.00 0.00 0.00 80 1008.7
20260506032826 38 341 3.0 6.0 0.00 0.00 0.00 80 1008.6
20260506032329 38 353 2.0 6.0 0.00 0.00 0.00 81 1008.6
20260506031323 38 344 2.0 6.0 0.00 0.00 0.00 81 1008.5
20260506030823 38 5 3.0 6.0 0.00 0.00 0.00 81 1008.5
20260506030324 38 345 2.0 6.0 0.00 0.00 0.00 81 1008.4
20260506030059 38 299 3.0 6.0 0.00 0.00 0.00 80 1008.4
20260506025326 38 345 2.0 5.0 0.00 0.00 0.00 80 1008.2
20260506024820 38 1 2.0 9.0 0.00 0.00 0.00 80 1008.3
20260506024318 38 336 4.0 9.0 0.00 0.00 0.00 80 1008.2
20260506024044 38 1 3.0 9.0 0.00 0.00 0.00 80 1008.2
20260506023321 38 354 3.0 7.0 0.00 0.00 0.00 81 1008.1
20260506022818 38 300 2.0 7.0 0.00 0.00 0.00 82 1008.1
20260506022319 38 317 4.0 7.0 0.00 0.00 0.00 82 1008.0
20260506021815 38 19 2.0 7.0 0.00 0.00 0.00 82 1008.0
20260506021315 38 19 2.0 9.0 0.00 0.00 0.00 82 1007.9
20260506020813 38 310 3.0 9.0 0.00 0.00 0.00 82 1007.7
20260506020543 39 343 4.0 9.0 0.00 0.00 0.00 82 1007.7
20260506020040 39 354 3.0 10.0 0.00 0.00 0.00 82 1007.6
20260506015314 39 7 2.0 10.0 0.00 0.00 0.00 82 1007.6
20260506014811 39 334 4.0 10.0 0.00 0.01 0.00 82 1007.5
20260506014311 39 357 4.0 10.0 0.00 0.01 0.00 81 1007.4
20260506013810 39 333 4.0 10.0 0.00 0.01 0.00 82 1007.3
20260506013537 39 337 2.0 10.0 0.00 0.01 0.00 82 1007.2
20260506012810 39 343 3.0 11.0 0.00 0.01 0.00 82 1007.1
20260506012536 39 320 4.0 11.0 0.00 0.01 0.00 82 1007.2
20260506011808 39 323 4.0 10.0 0.00 0.01 0.00 82 1007.2
20260506011307 39 324 5.0 10.0 0.00 0.02 0.00 82 1007.1
20260506010808 39 354 5.0 10.0 0.00 0.02 0.00 82 1007.0
20260506010308 39 300 4.0 10.0 0.00 0.02 0.00 82 1006.9
20260506005808 39 345 4.0 11.0 0.00 0.02 0.00 82 1006.7
20260506005532 39 340 6.0 11.0 0.00 0.03 0.00 82 1006.7
20260506005035 39 326 4.0 10.0 0.00 0.03 0.00 82 1006.6
20260506004307 39 336 4.0 9.0 0.00 0.04 0.00 82 1006.6
20260506003807 39 290 3.0 7.0 0.00 0.05 0.00 82 1006.6
20260506003302 39 30 4.0 10.0 0.00 0.05 0.00 82 1006.5
20260506002801 40 2 3.0 10.0 0.00 0.06 0.00 82 1006.5
20260506002259 40 330 4.0 9.0 0.00 0.06 0.00 81 1006.5
20260506001756 40 353 4.0 11.0 0.00 0.07 0.00 81 1006.5
20260506001259 40 341 5.0 11.0 0.00 0.07 0.00 81 1006.5
20260506000754 40 344 4.0 9.0 0.00 0.08 0.00 81 1006.4
20260506000257 40 340 4.0 6.0 0.00 0.09 0.00 81 1006.3
20260505235750 40 327 3.0 7.0 0.00 0.11 0.00 81 1006.2
20260505235250 41 348 3.0 9.0 0.00 0.13 0.00 81 1006.2
20260505234751 41 14 5.0 9.0 0.00 0.16 0.00 80 1006.2
20260505234518 41 48 4.0 7.0 0.00 0.16 0.00 80 1006.1
20260505233750 41 347 3.0 9.0 0.00 0.16 0.00 80 1006.2
20260505233249 42 300 3.0 9.0 0.00 0.16 0.00 79 1006.0
20260505232750 42 319 3.0 9.0 0.00 0.16 0.00 79 1006.0
20260505232516 42 334 3.0 7.0 0.00 0.16 0.00 79 1005.9
20260505231749 42 7 2.0 7.0 0.00 0.16 0.00 79 1006.0
20260505231249 42 358 2.0 9.0 0.00 0.17 0.00 78 1005.9
20260505230749 42 25 3.0 9.0 0.00 0.17 0.00 77 1005.9
20260505230249 43 25 4.0 9.0 0.00 0.17 0.00 74 1005.8
20260505225748 44 25 2.0 7.0 0.00 0.17 0.00 73 1005.7
20260505225248 44 17 2.0 15.0 0.00 0.17 0.00 71 1005.8
20260505224748 45 333 5.0 15.0 0.00 0.17 0.00 68 1005.6
20260505224248 46 2 4.0 11.0 0.00 0.17 0.00 66 1005.6
20260505223748 46 25 6.0 11.0 0.00 0.17 0.00 64 1005.4
20260505223248 47 329 4.0 10.0 0.00 0.17 0.00 62 1005.5
20260505222748 48 329 4.0 10.0 0.00 0.17 0.00 59 1005.5
20260505222516 50 351 4.0 15.0 0.00 0.17 0.00 53 1005.3
20260505221748 53 337 5.0 19.0 0.00 0.17 0.00 42 1005.3
20260505221247 54 282 10.0 19.0 0.00 0.17 0.00 35 1005.1
20260505220747 54 293 6.0 13.0 0.00 0.17 0.00 36 1005.1
20260505220248 54 322 8.0 19.0 0.00 0.17 0.00 36 1005.0
20260505215746 54 295 10.0 19.0 0.00 0.17 0.00 35 1005.0
20260505215247 54 290 8.0 18.0 0.00 0.17 0.00 36 1005.0
20260505215019 54 276 5.0 18.0 0.00 0.17 0.00 36 1004.9
20260505214246 53 264 8.0 18.0 0.00 0.17 0.00 36 1004.8
20260505213746 53 316 7.0 18.0 0.00 0.17 0.00 38 1004.9
20260505213247 53 314 9.0 21.0 0.00 0.17 0.00 37 1004.9
20260505212748 53 17 6.0 22.0 0.00 0.17 0.00 36 1004.9
20260505212247 53 2 7.0 22.0 0.00 0.17 0.00 35 1004.9
20260505211745 53 283 6.0 20.0 0.00 0.17 0.00 35 1004.9
20260505211245 53 309 10.0 20.0 0.00 0.17 0.00 37 1004.9
20260505211017 53 305 8.0 18.0 0.00 0.17 0.00 37 1004.9
20260505210509 53 296 11.0 20.0 0.00 0.17 0.00 36 1004.8
20260505210012 53 292 9.0 20.0 0.00 0.17 0.00 37 1004.9
20260505205245 53 254 8.0 17.0 0.00 0.17 0.00 37 1004.7
20260505204745 53 358 9.0 17.0 0.00 0.17 0.00 37 1004.7
20260505204245 53 274 5.0 21.0 0.00 0.17 0.00 37 1004.7
20260505203744 53 348 10.0 21.0 0.00 0.17 0.00 36 1004.5
20260505203516 53 323 8.0 17.0 0.00 0.17 0.00 36 1004.5
20260505202745 54 336 8.0 17.0 0.00 0.17 0.00 35 1004.4
20260505202244 54 283 8.0 22.0 0.00 0.17 0.00 38 1004.4
20260505201745 53 267 12.0 22.0 0.00 0.17 0.00 38 1004.3
20260505201512 53 340 10.0 20.0 0.00 0.17 0.00 36 1004.4
20260505200744 53 282 9.0 20.0 0.00 0.17 0.00 39 1004.3
20260505200244 53 300 8.0 16.0 0.00 0.17 0.00 38 1004.2
20260505195743 54 334 8.0 16.0 0.00 0.17 0.00 38 1004.1
20260505195243 55 350 8.0 17.0 0.00 0.17 0.00 39 1004.4
20260505194743 54 282 9.0 18.0 0.00 0.17 0.00 40 1004.3
20260505194243 54 350 10.0 18.0 0.00 0.17 0.00 37 1004.2
20260505193745 54 330 8.0 18.0 0.00 0.17 0.00 40 1004.1
20260505193240 54 286 7.0 19.0 0.00 0.17 0.00 39 1004.1
20260505192740 55 320 10.0 19.0 0.00 0.17 0.00 38 1004.1
20260505192240 55 276 9.0 19.0 0.00 0.17 0.00 42 1004.1
20260505191738 54 286 9.0 20.0 0.00 0.17 0.00 42 1004.1
20260505191510 55 323 10.0 20.0 0.00 0.17 0.00 43 1003.9
20260505190738 54 288 4.0 19.0 0.00 0.17 0.00 46 1003.8
20260505190239 53 290 8.0 19.0 0.00 0.17 0.00 47 1003.9
20260505185723 53 279 9.0 24.0 0.00 0.17 0.00 46 1003.9
20260505185223 53 275 13.0 24.0 0.00 0.17 0.00 47 1003.8
20260505184722 54 298 9.0 18.0 0.00 0.17 0.00 47 1003.8
20260505184216 53 275 6.0 15.0 0.00 0.17 0.00 52 1003.7
20260505183717 49 307 4.0 15.0 0.00 0.17 0.00 62 1003.4
20260505183217 47 0 4.0 10.0 0.00 0.17 0.00 65 1003.5
20260505182716 46 19 4.0 9.0 0.00 0.17 0.00 69 1003.4
20260505182218 45 351 2.0 9.0 0.00 0.17 0.00 67 1003.8
20260505181714 46 25 4.0 11.0 0.00 0.17 0.00 68 1003.5
20260505181214 46 358 3.0 11.0 0.00 0.17 0.00 68 1003.8
20260505180715 46 24 3.0 20.0 0.00 0.17 0.00 68 1003.7
20260505180219 45 21 7.0 20.0 0.00 0.17 0.00 69 1003.4
20260505175748 45 14 6.0 14.0 0.00 0.17 0.00 69 1003.5
20260505175020 45 341 6.0 14.0 0.00 0.17 0.00 71 1003.7
20260505174746 45 14 3.0 11.0 0.00 0.17 0.00 71 1003.4
20260505174019 45 351 5.0 10.0 0.00 0.17 0.00 72 1003.5
20260505173519 44 0 3.0 10.0 0.00 0.17 0.00 71 1003.7
20260505173016 45 340 3.0 10.0 0.00 0.17 0.00 73 1003.7
20260505172518 45 333 4.0 11.0 0.00 0.17 0.00 71 1003.7
20260505172015 45 355 4.0 11.0 0.00 0.17 0.00 74 1003.5
20260505171513 44 288 4.0 10.0 0.00 0.17 0.00 72 1003.8
20260505171012 44 42 4.0 10.0 0.00 0.17 0.00 71 1003.7
20260505170513 44 358 4.0 10.0 0.00 0.17 0.00 72 1003.7
20260505170015 44 357 5.0 11.0 0.00 0.17 0.00 73 1003.5
20260505165511 43 69 4.0 12.0 0.00 0.17 0.00 72 1003.7
20260505165009 44 334 5.0 12.0 0.00 0.17 0.00 72 1003.7
20260505164511 44 314 4.0 15.0 0.00 0.17 0.00 72 1003.8
20260505164010 44 355 4.0 15.0 0.00 0.17 0.00 71 1003.5
20260505163507 44 250 6.0 12.0 0.00 0.17 0.00 70 1003.4
20260505163009 45 329 6.0 13.0 0.00 0.17 0.00 68 1003.4
20260505162505 46 327 7.0 13.0 0.00 0.17 0.00 63 1003.5
20260505162247 48 302 4.0 15.0 0.00 0.17 0.00 60 1003.4
20260505161505 49 357 6.0 15.0 0.00 0.17 0.00 55 1003.2
20260505161006 49 347 8.0 15.0 0.00 0.17 0.00 58 1003.3
20260505160732 48 343 5.0 15.0 0.00 0.17 0.00 56 1003.5
20260505153002 47 257 6.0 17.0 0.00 0.17 0.00 58 1003.3
20260505152502 47 286 8.0 17.0 0.00 0.17 0.00 58 1003.3
20260505152004 47 290 7.0 15.0 0.00 0.17 0.00 65 1003.4
20260505151502 47 265 8.0 16.0 0.00 0.17 0.00 66 1003.4
20260505151003 47 330 5.0 16.0 0.00 0.17 0.00 67 1003.2
20260505150502 47 344 7.0 14.0 0.00 0.17 0.00 68 1003.2
20260505150223 46 285 8.0 14.0 0.00 0.17 0.00 70 1003.2
20260505140610 43 27 2.0 9.0 0.00 0.17 0.00 79 1002.2
20260505124943 44 300 6.0 12.0 0.00 0.17 0.00 70 1001.3
20260505124444 44 327 6.0 12.0 0.00 0.17 0.00 70 1001.3